Lapse_Rate
7.3 7.5 7.7 7.9 7.7 7.7 7.8 7.7 7.7 7.5 7.4 7.0 7.2 7.6 7.5 8.7 8.2 7.8 5.7 4.7 4.8 5.2 4.9 4.9 4.6 4.6 4.5 4.5 4.5 4.3 4.2 4.3 4.3 4.4 4.5 4.5 4.6 4.8 5.0 5.7 6.4 7.7 8.1
7.3 7.7 7.3 7.4 7.5 7.9 7.7 8.0 7.8 7.5 7.3 7.5 7.0 7.0 7.1 7.0 6.8 6.8 6.5 5.0 4.4 4.6 4.8 4.8 4.8 5.0 4.9 4.8 4.5 4.3 4.1 4.2 4.4 4.5 4.5 4.6 4.5 4.6 5.0 5.2 5.8 7.5 7.7
7.7 7.9 7.5 7.6 7.1 6.9 7.1 6.9 6.7 6.8 6.8 6.5 6.3 5.8 5.9 5.7 5.9 6.3 6.6 6.2 5.1 4.1 4.4 4.5 4.6 4.7 4.8 4.9 4.7 4.4 4.1 4.1 4.2 4.4 4.4 4.4 4.4 4.5 4.9 5.0 6.3 7.7 8.9
7.6 7.7 7.8 7.5 6.9 6.7 7.1 7.2 7.1 7.1 7.1 7.0 6.7 6.1 5.8 6.0 5.9 6.1 5.9 6.0 5.7 5.4 3.6 3.3 3.6 3.8 4.2 4.6 4.8 4.6 4.3 4.1 4.2 4.2 4.2 4.2 4.3 4.5 4.8 5.3 6.2 8.1 9.2
7.7 8.0 7.9 7.3 7.0 7.0 7.2 7.3 7.1 7.4 7.1 7.0 6.8 6.7 6.4 6.3 6.0 6.1 5.8 5.3 4.4 4.8 4.7 1.7 1.9 2.5 3.3 3.7 4.4 4.6 4.4 4.3 4.1 4.1 4.1 4.2 4.3 4.5 4.7 5.5 7.2 8.9 8.5
7.6 8.1 7.8 7.4 7.4 7.4 7.5 7.4 7.3 7.0 7.3 7.0 6.6 6.6 6.6 6.1 6.0 6.5 5.8 5.0 4.7 4.1 4.1 3.7 3.4 2.6 1.6 2.4 3.1 3.7 4.3 4.4 4.2 4.1 4.1 4.0 4.2 4.4 4.8 5.5 7.2 8.9 8.6
7.7 8.1 8.0 7.6 7.5 8.2 8.2 8.0 7.7 6.8 6.4 6.9 7.1 6.8 6.5 6.4 6.7 6.0 5.7 5.9 4.8 4.3 3.8 3.7 3.8 3.5 3.0 1.1 1.7 2.6 3.4 3.9 4.2 4.2 4.1 4.1 4.2 4.4 5.0 5.5 7.5 9.1 8.5
7.7 7.9 8.0 7.8 7.7 8.1 7.8 7.4 7.0 6.9 6.9 6.8 8.7 8.8 8.3 8.0 6.7 6.3 6.0 5.9 5.5 4.4 3.9 3.5 3.5 3.4 3.2 3.3 1.5 1.0 1.8 2.8 3.8 4.1 4.2 4.2 4.2 4.4 4.8 5.4 7.6 9.2 8.9
7.6 7.7 7.8 7.8 7.5 7.5 7.6 7.3 7.1 7.2 7.3 6.5 6.6 8.5 8.0 7.9 8.3 6.1 5.5 5.7 5.6 4.8 4.7 3.9 3.4 3.2 3.0 3.0 1.6 1.8 0.8 1.5 3.0 3.8 4.2 4.2 4.1 4.2 4.8 5.2 6.8 9.3 9.2
7.7 7.4 7.4 7.5 7.5 7.4 7.8 7.4 7.1 7.5 7.8 7.2 6.4 6.6 6.6 7.5 8.2 8.0 5.8 5.3 5.3 5.2 5.1 4.1 3.9 3.4 2.8 2.6 1.4 0.5 0.4 1.0 2.3 3.2 3.9 4.1 3.9 4.1 4.4 4.8 6.0 8.6 9.3
7.6 7.3 7.1 7.2 7.5 7.5 7.7 7.7 7.0 7.0 7.2 8.1 7.0 6.6 6.7 6.9 7.2 8.1 8.1 8.3 5.3 5.1 5.1 4.5 4.0 3.2 2.2 2.0 1.9 0.9 -0.1 0.6 1.6 2.5 3.5 3.9 3.7 3.9 4.1 4.6 5.4 7.2 9.3
7.6 7.2 6.9 7.1 7.3 7.5 7.5 7.2 7.2 7.2 7.2 7.3 7.6 7.4 7.3 7.5 7.5 7.3 8.3 8.6 8.7 8.6 5.5 4.5 3.6 2.9 2.2 1.4 0.9 -0.3 -0.9 -0.1 0.8 2.0 3.1 3.6 3.1 3.2 3.5 4.1 4.6 5.7 9.2
6.4 7.0 7.0 7.0 6.8 6.6 6.7 6.9 7.0 7.0 7.0 7.0 7.2 7.3 7.3 7.5 8.0 7.9 8.6 8.6 8.5 9.0 5.4 4.6 3.7 3.0 2.0 1.1 1.1 -1.2 -1.5 -0.8 0.1 1.4 2.6 3.0 2.4 2.6 2.9 3.6 4.2 5.4 7.4
5.4 5.9 6.1 5.4 5.0 5.0 5.3 5.8 6.7 6.8 7.0 6.8 6.8 6.8 7.1 6.9 6.9 6.7 7.3 8.1 8.3 8.3 7.1 5.1 3.2 2.6 1.7 1.0 1.0 -1.7 -0.2 -1.4 -0.5 0.6 1.8 2.1 2.0 2.4 2.6 3.1 3.6 4.8 6.2
5.8 5.5 4.7 4.2 4.2 4.1 4.2 4.6 4.8 6.1 6.4 6.7 6.7 6.7 6.5 6.6 6.3 6.0 6.0 6.3 7.3 7.9 8.1 8.7 5.1 1.7 1.5 0.9 0.0 -0.6 0.5 -0.5 -1.0 -0.2 0.7 1.0 1.4 1.7 2.1 2.7 3.4 4.6 5.6
5.4 5.1 4.6 4.2 4.2 3.9 3.7 3.9 4.1 4.8 6.1 6.5 6.4 6.4 6.4 6.1 5.8 5.3 5.0 5.2 5.4 6.3 7.9 8.4 4.6 2.6 1.2 0.7 0.3 -0.3 0.2 -1.3 -1.6 -0.8 0.3 1.0 1.4 1.8 2.1 2.4 3.1 4.1 5.0
6.9 5.7 5.3 6.2 5.4 4.2 3.8 3.6 3.8 4.0 5.0 6.0 6.3 5.7 5.9 6.1 5.5 5.0 4.3 4.5 4.5 4.7 5.5 6.3 4.2 2.6 1.4 1.3 0.7 -0.6 -0.2 -0.0 0.6 -0.9 0.2 0.9 1.2 1.4 1.7 2.0 2.9 4.0 4.5
6.8 5.4 7.1 6.9 6.4 6.2 5.8 4.5 4.1 3.6 5.6 6.0 6.2 5.6 5.0 5.4 4.9 5.2 4.5 3.9 3.9 4.4 4.5 5.1 5.8 1.9 1.3 1.2 1.5 0.8 0.1 0.1 0.9 -0.0 -0.1 0.6 1.2 1.6 1.9 2.1 2.7 3.3 4.3
4.9 6.0 5.9 6.7 6.6 6.6 6.7 6.5 6.0 5.6 5.5 5.8 6.1 6.2 5.7 5.5 4.9 4.8 4.4 4.2 4.0 3.7 3.0 2.7 3.7 2.0 1.1 -0.1 0.1 -0.1 0.1 -0.1 0.1 -0.1 0.3 0.5 1.5 1.9 2.2 2.5 3.1 3.4 4.0
4.8 4.3 4.4 4.4 4.5 5.2 5.3 5.8 5.6 5.2 5.5 5.3 5.2 5.5 6.0 5.7 5.1 5.2 4.7 3.9 3.0 2.1 1.3 1.1 1.3 1.3 -0.6 -1.1 -1.0 -0.8 -0.8 -0.9 -0.4 0.3 0.4 1.0 1.6 2.0 2.4 2.3 3.0 3.3 3.8
2.6 3.6 3.3 3.1 3.6 3.0 3.3 3.2 3.2 3.1 3.2 3.2 3.0 3.5 4.3 4.3 2.2 3.8 4.8 3.9 2.5 1.5 0.2 -0.3 0.7 0.7 0.3 -1.0 -0.8 -0.5 -0.3 -0.5 -0.4 -0.4 0.0 0.8 0.9 1.8 3.2 2.4 2.7 3.2 3.9
0.8 0.2 1.1 2.8 3.2 2.9 1.4 0.5 2.2 3.0 2.9 3.0 3.0 2.5 2.2 -0.2 0.3 -0.1 0.3 1.0 1.7 1.1 1.5 0.9 2.4 2.3 1.5 1.4 0.7 -1.8 -1.0 -0.7 1.0 -0.7 -0.1 0.6 1.5 3.0 4.5 3.7 3.9 3.5 4.1
-0.6 0.2 0.8 1.1 1.2 1.7 -0.0 -0.2 0.1 2.6 3.1 2.7 2.7 3.0 3.0 1.7 -0.1 1.4 -0.3 -0.3 0.4 0.0 1.8 1.9 1.8 1.0 1.8 0.5 -2.1 -1.6 -0.8 0.4 0.8 -1.0 0.4 1.0 2.3 4.2 5.4 3.7 3.0 3.6 3.8
-0.4 -0.3 0.1 0.5 0.7 1.0 0.0 -0.1 -0.2 0.7 2.0 2.8 2.8 2.5 2.8 2.7 1.2 0.7 0.8 0.3 -0.0 0.4 -0.3 0.7 0.9 1.5 0.4 -1.3 -2.1 0.2 1.2 1.4 0.2 0.4 1.4 2.5 2.6 4.5 4.9 3.6 3.0 3.6 3.7
0.0 0.2 0.4 0.6 0.8 1.1 0.4 -0.0 0.5 1.1 1.6 1.7 2.3 2.9 3.1 3.1 2.6 0.3 1.0 0.6 0.0 -0.4 -0.2 -0.5 -0.6 -0.2 -1.1 -1.4 -0.6 -0.7 -0.8 1.0 1.1 1.5 1.1 2.9 3.1 4.5 3.5 4.2 4.1 3.6 3.8
1.1 1.1 0.4 0.5 0.7 1.0 1.3 0.6 0.3 1.1 1.6 1.9 1.9 2.1 1.5 2.2 2.1 1.2 0.8 0.9 0.5 -0.2 -0.2 -2.2 -1.6 -2.1 -1.1 -1.4 -0.8 0.3 1.0 3.0 2.0 1.5 1.4 3.0 3.7 3.6 4.7 3.6 3.8 3.7 4.4
Wind_Speed
10 9 9 7 8 8 8 8 9 9 9 9 9 10 10 10 11 11 13 14 14 13 14 13 14 13 13 13 12 13 14 14 14 13 14 15 15 16 16 17 17 19 20
10 9 9 7 7 6 7 7 8 8 8 8 8 8 8 9 9 9 10 12 14 12 12 12 12 11 11 10 11 12 12 12 12 12 13 13 14 15 15 17 18 19 20
9 9 8 7 7 7 8 9 8 8 7 7 7 7 7 7 7 8 6 8 10 12 11 10 10 9 9 9 9 10 10 10 10 11 12 13 14 14 15 16 17 18 19
8 7 7 7 7 8 8 8 7 5 5 5 5 5 6 6 7 6 6 6 5 7 9 8 7 8 8 8 8 7 8 8 9 10 11 12 13 14 16 16 17 18 18
6 6 6 8 9 8 7 7 5 5 5 4 4 4 5 5 5 5 6 5 5 4 5 6 6 7 7 6 6 6 7 7 8 9 10 12 13 14 15 16 16 17 16
7 7 7 8 8 7 6 6 6 5 5 5 4 4 4 4 5 5 5 5 5 5 4 4 2 3 4 5 6 6 6 6 7 8 10 11 12 13 14 15 15 16 15
10 9 8 8 8 6 6 7 5 7 4 5 5 3 3 4 4 5 5 6 7 6 5 5 4 3 2 2 4 5 5 6 6 8 9 10 11 12 13 14 14 15 16
11 10 9 8 8 5 7 8 8 5 3 7 4 3 4 5 5 6 7 7 8 7 8 7 6 5 4 2 1 3 5 6 6 7 8 9 10 11 12 13 14 14 14
12 11 10 9 9 8 6 8 8 8 5 6 6 3 3 4 3 4 8 6 7 8 9 9 9 8 6 5 4 3 3 5 6 7 7 7 9 10 11 12 13 13 15
12 12 11 10 10 9 7 7 9 7 6 6 5 6 4 2 3 3 4 7 7 8 10 10 11 11 10 8 5 3 3 5 5 6 7 7 8 9 10 12 12 13 14
13 13 13 12 11 10 10 9 8 9 7 6 7 4 7 5 5 4 6 4 5 8 12 13 13 12 12 10 8 6 4 4 5 6 6 6 7 9 10 11 12 13 14
9 13 14 13 13 12 10 10 11 10 9 8 7 7 6 4 5 6 7 8 7 4 7 12 13 14 13 12 10 7 6 5 5 6 6 6 7 8 9 10 11 11 13
6 9 16 14 12 14 13 12 10 10 10 9 10 8 8 8 7 7 7 8 6 5 5 7 13 14 14 13 12 11 8 7 6 6 6 6 6 6 8 9 10 11 12
8 14 15 14 15 13 13 12 10 8 10 9 12 10 8 8 7 7 8 7 8 6 5 7 8 13 14 14 12 12 10 9 7 6 6 6 6 6 8 8 8 9 10
7 11 15 14 15 15 15 13 7 10 10 11 11 11 10 8 7 8 8 8 8 7 8 4 5 10 12 12 13 13 11 8 7 6 6 5 6 6 7 8 8 9 9
11 10 11 12 12 15 15 13 9 9 10 10 9 12 11 9 9 8 8 7 8 9 9 3 5 4 10 11 12 13 10 6 7 8 8 7 7 6 7 8 8 9 9
14 14 12 15 14 12 13 12 13 12 13 13 13 13 14 12 8 8 7 7 8 8 9 9 4 5 8 8 10 12 10 10 10 11 10 8 9 8 7 8 8 8 9
13 13 15 14 15 15 14 13 13 12 17 15 17 14 15 8 12 10 8 11 10 10 8 12 6 6 9 10 12 12 12 13 12 10 13 10 9 8 8 8 7 7 8
10 13 11 14 14 14 14 15 16 16 17 17 16 16 16 15 14 11 12 10 10 8 9 6 6 4 5 4 7 9 12 12 11 9 12 10 10 10 9 10 9 7 7
12 9 11 10 10 11 12 13 12 13 14 14 13 15 16 15 16 15 13 14 9 8 9 8 6 7 3 4 5 6 6 5 6 9 10 10 8 11 11 10 10 8 8
4 9 9 9 11 9 8 11 12 12 13 13 12 13 14 16 17 17 10 12 13 10 8 8 8 6 7 5 9 6 8 5 4 5 3 8 8 10 11 11 10 10 8
7 7 6 7 10 8 11 15 14 11 13 13 13 13 13 13 15 18 19 17 15 12 13 8 11 10 14 11 7 6 5 3 4 8 5 4 9 6 10 10 9 8 7
8 8 7 6 6 6 8 8 13 12 11 11 12 12 11 9 13 13 17 20 19 22 19 14 14 14 12 11 8 7 7 5 4 5 4 2 5 5 9 8 9 10 6
8 8 8 7 7 5 8 9 9 7 8 11 11 12 12 11 11 12 12 11 14 15 16 13 14 14 9 8 12 10 10 6 4 5 5 3 2 4 8 8 10 12 7
7 7 7 8 7 7 7 9 9 6 7 8 8 10 11 12 13 17 12 11 11 11 16 22 18 12 11 19 19 9 8 7 3 3 6 3 4 4 4 4 8 10 6
9 7 9 9 11 10 9 8 8 5 7 7 8 9 11 13 13 14 12 11 10 12 10 6 8 8 15 18 26 16 10 9 4 3 6 5 5 4 3 3 9 9 7
Wind_Direction
133 128 122 126 125 136 133 125 124 119 116 111 108 107 107 104 103 96 97 71 79 86 85 82 79 75 72 67 63 58 53 50 48 44 38 33 27 23 21 20 13 12 10
140 134 126 125 126 143 140 141 134 127 119 115 108 107 104 102 101 102 106 89 77 78 84 79 74 72 70 68 62 57 51 47 44 40 35 28 24 21 16 16 13 10 8
145 138 131 136 140 136 137 133 131 125 120 118 116 110 111 104 109 115 118 114 106 75 80 77 72 69 65 62 59 55 49 44 40 36 31 25 21 17 13 12 10 8 6
147 146 141 144 145 144 147 150 149 136 134 137 141 134 127 127 121 122 129 136 132 120 89 73 72 66 60 54 52 49 45 41 35 30 26 22 17 13 12 8 8 6 4
158 160 156 145 155 146 147 153 151 150 148 151 141 144 142 138 132 152 143 144 132 144 134 105 78 62 56 49 43 36 37 34 29 24 20 18 14 9 8 7 5 2 7
176 167 160 158 158 157 156 163 160 162 165 154 149 155 158 158 168 182 162 162 166 169 173 179 173 94 53 40 36 26 24 23 23 19 15 12 9 7 3 3 1 2 5
181 180 173 171 180 185 182 179 166 163 155 164 156 167 184 199 205 198 194 198 191 194 197 207 207 207 191 70 34 16 9 11 13 11 7 6 5 3 359 358 356 358 360
185 186 189 189 192 192 187 183 181 172 173 190 208 197 206 195 217 210 209 213 211 207 213 218 220 225 233 250 344 350 354 360 0 0 358 0 360 355 355 353 351 352 354
195 198 199 193 191 196 197 196 195 195 187 193 225 268 202 238 171 189 219 217 217 220 223 223 225 228 231 236 245 263 344 343 344 346 348 353 354 351 349 348 348 346 354
205 206 204 202 198 200 207 204 204 210 211 200 208 233 257 311 260 211 208 223 227 232 229 225 229 229 230 234 238 256 300 318 330 334 336 339 347 342 344 344 344 344 348
206 209 210 209 208 206 210 208 205 210 215 224 215 189 226 239 254 265 279 195 231 233 232 232 229 230 227 230 232 233 250 286 311 319 321 327 336 336 343 342 342 343 342
206 210 214 216 219 218 215 212 215 219 219 224 226 221 221 216 226 234 252 271 264 234 223 227 230 230 228 228 230 220 232 259 287 297 304 314 325 333 339 337 338 340 341
196 212 212 214 219 222 220 216 216 222 223 224 226 231 234 242 250 246 262 270 274 257 236 233 228 228 226 226 227 212 218 235 259 275 287 295 311 323 331 335 335 336 338
199 205 204 207 208 204 208 215 226 225 226 229 231 229 235 236 231 235 243 257 258 248 248 250 210 220 221 223 226 203 224 224 243 270 282 301 306 316 322 327 326 327 333
207 199 197 202 208 208 205 201 210 225 225 231 234 232 229 235 229 230 231 231 246 266 270 225 227 213 216 217 221 214 227 219 235 260 259 272 279 286 307 312 316 317 322
214 210 208 206 207 208 209 204 212 222 225 231 233 231 229 230 226 225 224 227 230 244 260 260 222 192 207 217 215 218 226 217 230 239 238 251 262 279 297 296 304 309 317
225 217 214 217 218 210 208 206 214 216 219 227 228 233 233 229 228 223 220 224 227 225 245 260 238 204 211 217 213 218 220 225 229 224 230 242 242 251 272 279 287 303 314
228 220 225 225 223 224 227 217 221 216 226 226 231 226 234 227 228 228 220 225 225 222 232 249 219 213 219 214 219 215 219 226 228 216 219 233 244 255 274 268 267 284 306
234 235 234 229 230 226 228 226 229 231 230 230 230 231 233 228 227 224 221 225 224 222 222 230 236 213 206 189 216 220 221 225 230 230 225 236 240 248 262 266 259 264 293
241 235 232 235 236 238 238 239 237 240 237 235 237 238 235 229 226 225 222 222 215 210 212 220 230 225 193 209 212 210 212 203 215 218 222 234 251 252 251 258 256 259 271
302 240 230 229 236 232 230 228 228 229 233 234 233 233 234 233 226 229 223 223 214 212 203 213 224 219 216 196 209 200 210 178 204 188 201 232 237 238 241 245 254 243 266
338 324 339 262 233 230 223 223 229 227 229 232 237 235 236 234 237 235 229 229 209 206 218 215 227 224 228 218 201 186 168 161 230 188 192 226 199 238 233 234 247 235 258
330 326 323 325 324 341 5 282 241 239 237 233 235 240 240 229 225 234 231 232 228 225 221 220 228 222 231 205 162 175 185 192 196 159 171 196 184 228 226 232 228 215 243
324 322 316 318 312 310 330 331 326 305 263 253 242 239 241 238 222 220 229 229 231 232 230 233 233 242 219 168 182 196 182 167 93 140 167 219 165 223 210 232 211 208 239
315 310 307 307 303 298 317 321 320 307 278 276 274 258 245 244 235 213 224 226 229 233 231 234 235 250 213 193 179 149 165 160 178 182 194 197 164 212 227 215 207 202 222
311 310 307 306 307 301 304 311 312 289 283 285 280 275 264 257 256 215 217 221 227 232 216 201 216 211 210 194 182 191 172 184 161 168 183 196 162 183 209 201 207 206 225